BV5AB-33 Weather Reports


Display with metric or nautical units.
time (UTC)temp
F
wind
direction
speed
MPH
gust
MPH
rain 1hr
in
rain 24hr
in
rain mn
in
humidity
%
barometer
mb
20260504081957 83 237 0.0 2.0 0.00 3.40 0.00 53 982.7
20260504081457 83 0 0.0 0.0 0.00 3.40 0.00 53 982.7
20260504080957 83 135 0.0 1.0 0.00 3.40 0.00 53 982.6
20260504080458 83 135 0.0 1.0 0.00 3.40 0.00 53 982.6
20260504050457 89 270 0.0 2.0 0.00 3.40 0.00 46 983.2
20260504045958 89 276 0.0 2.0 0.00 3.40 0.00 47 983.1
20260504044458 89 250 0.0 2.0 0.00 3.40 0.00 48 983.5
20260504043957 88 107 0.0 1.0 0.00 3.40 0.00 49 983.5
20260504043457 88 104 0.0 1.0 0.00 3.40 0.00 49 983.5
20260504042958 88 55 0.0 1.0 0.00 3.40 0.00 49 983.6
20260504041458 88 202 0.0 2.0 0.00 3.40 0.00 49 983.7
20260504040958 88 265 0.0 2.0 0.00 3.40 0.00 50 983.6
20260504040458 87 265 0.0 2.0 0.00 3.40 0.00 50 983.6
20260504035457 87 270 0.0 1.0 0.00 3.40 0.00 50 983.6
20260504034958 87 38 0.0 2.0 0.00 3.40 0.00 50 983.5
20260504033957 86 270 0.0 1.0 0.00 3.40 0.00 51 983.8
20260504033458 86 350 0.0 4.0 0.00 3.40 0.00 51 983.9
20260504032458 85 314 0.0 1.0 0.00 3.40 0.00 51 983.7
20260504031958 85 11 0.0 5.0 0.00 3.40 0.00 51 983.9
20260504031458 85 14 0.0 5.0 0.00 3.40 0.00 51 983.9
20260504030458 86 234 0.0 3.0 0.00 3.40 0.00 51 984.0
20260504025958 85 264 0.0 3.0 0.00 3.40 0.00 52 984.2
20260504025457 84 248 0.0 5.0 0.00 3.40 0.00 52 984.1
20260504024958 84 264 0.0 5.0 0.00 3.40 0.00 52 983.9
20260504024458 83 315 1.0 2.0 0.00 3.40 0.00 53 984.0
20260504023958 83 189 0.0 6.0 0.00 3.40 0.00 53 983.9
20260504023457 83 199 0.0 6.0 0.00 3.40 0.00 53 983.7
20260504022958 82 211 3.0 6.0 0.00 3.40 0.00 54 983.8
20260504022458 82 270 0.0 2.0 0.00 3.40 0.00 54 983.9
20260504021958 82 102 0.0 2.0 0.00 3.40 0.00 54 983.8
20260504021458 82 114 0.0 2.0 0.00 3.40 0.00 53 983.6
20260504020458 83 323 0.0 3.0 0.00 3.40 0.00 53 983.7
20260504015958 83 323 0.0 3.0 0.00 3.40 0.00 52 983.6
20260504015457 84 68 0.0 1.0 0.00 3.40 0.00 52 983.8
20260504013958 85 9 0.0 2.0 0.00 3.40 0.00 52 984.1
20260504013458 85 13 0.0 2.0 0.00 3.40 0.00 53 984.0
20260504012457 85 107 0.0 4.0 0.00 3.40 0.00 53 984.0
20260504011958 85 101 0.0 4.0 0.00 3.40 0.00 52 984.0
20260504011458 85 99 0.0 2.0 0.00 3.40 0.00 52 984.1
20260504010957 86 108 0.0 2.0 0.00 3.40 0.00 52 984.1
20260504010458 86 293 0.0 1.0 0.00 3.40 0.00 52 984.1
20260504005959 87 187 0.0 1.0 0.00 3.40 0.00 52 983.9
20260504005458 87 258 0.0 3.0 0.00 3.40 0.00 52 984.1
20260504004958 88 155 0.0 3.0 0.00 3.40 0.00 53 983.7
20260504004458 87 87 0.0 3.0 0.00 3.40 0.00 53 983.7
20260504003958 88 248 0.0 5.0 0.00 3.40 0.00 54 983.7
20260504002458 87 269 2.0 7.0 0.00 3.40 0.00 56 983.7
20260504001959 86 237 1.0 4.0 0.00 3.40 0.00 58 983.6
20260504001458 86 0 0.0 0.0 0.00 3.40 0.00 60 983.4
20260504000958 85 0 0.0 0.0 0.00 3.40 0.00 60 983.3
20260504000458 85 0 0.0 0.0 0.00 3.40 0.00 59 983.4
20260503235958 85 90 0.0 3.0 0.00 3.40 0.00 60 983.3
20260503235458 85 68 0.0 3.0 0.00 3.40 0.00 60 983.4
20260503234958 85 66 1.0 3.0 0.00 3.40 0.00 60 983.1
20260503234457 85 88 0.0 1.0 0.00 3.40 0.00 59 983.5
20260503233958 85 0 0.0 0.0 0.00 3.40 0.00 59 983.3
20260503233458 85 0 0.0 0.0 0.00 3.40 0.00 60 983.2
20260503232958 84 270 0.0 2.0 0.00 3.40 0.00 61 983.5
20260503231958 83 198 0.0 1.0 0.00 3.40 0.00 62 983.8
20260503231458 83 0 0.0 0.0 0.00 3.40 0.00 63 983.6
20260503230458 81 0 0.0 0.0 0.00 3.40 0.00 69 983.6
20260503225958 80 0 0.0 0.0 0.00 3.40 0.00 70 983.8
20260503225457 80 0 0.0 0.0 0.00 3.40 0.00 69 983.7
20260503224958 80 90 0.0 1.0 0.00 3.40 0.00 70 983.5
20260503224458 79 90 0.0 1.0 0.00 3.40 0.00 70 983.5
20260503223958 78 90 0.0 1.0 0.00 3.40 0.00 70 983.4
20260503223458 78 0 0.0 0.0 0.00 3.40 0.00 70 983.4
20260503222958 79 0 0.0 0.0 0.00 3.40 0.00 70 983.2
20260503222459 78 0 0.0 0.0 0.00 3.40 0.00 71 983.2
20260503221959 78 61 0.0 2.0 0.00 3.40 0.00 71 983.4
20260503221459 78 75 0.0 2.0 0.00 3.40 0.00 71 983.1
20260503220458 77 90 0.0 2.0 0.00 3.40 0.00 72 983.6
20260503215959 77 68 0.0 1.0 0.00 3.40 0.00 72 983.3
20260503214459 78 73 0.0 2.0 0.00 3.40 0.00 72 983.2
20260503213958 78 77 0.0 2.0 0.00 3.40 0.00 72 983.2
20260503213459 78 90 0.0 1.0 0.00 3.40 0.00 71 983.0
20260503212959 78 0 0.0 0.0 0.00 3.40 0.00 71 983.3
20260503212459 78 0 0.0 0.0 0.00 3.40 0.00 71 983.3
20260503211959 78 0 0.0 0.0 0.00 5.67 0.00 71 983.0
20260503211458 78 0 0.0 0.0 0.00 1.03 0.00 71 982.9
20260503210958 79 0 0.0 0.0 0.00 1.03 0.00 71 983.0
20260503210458 79 66 0.0 2.0 0.00 1.03 0.00 71 983.1
20260503205959 79 295 0.0 3.0 0.00 1.03 0.00 71 983.2
20260503205459 79 311 1.0 3.0 0.00 1.03 0.00 71 983.0
20260503204959 79 335 0.0 3.0 0.00 1.03 0.00 71 983.0
20260503204459 79 225 0.0 1.0 0.00 1.03 0.00 71 982.9
20260503203958 79 46 0.0 1.0 0.00 1.03 0.00 71 983.1
20260503203459 79 45 0.0 1.0 0.00 1.03 0.00 72 982.7
20260503202959 79 0 0.0 0.0 0.00 1.03 0.00 72 982.9
20260503202458 79 0 0.0 0.0 0.00 1.03 0.00 72 982.8
20260503201959 79 0 0.0 0.0 0.00 1.03 0.00 72 982.9
20260503201459 79 0 0.0 0.0 0.00 1.03 0.00 72 982.9
20260503200459 79 0 0.0 0.0 0.00 1.03 0.00 72 982.6
20260503195958 79 0 0.0 0.0 0.00 1.03 0.00 71 982.7
20260503195459 79 61 0.0 1.0 0.00 1.03 0.00 71 982.6
20260503194958 79 64 0.0 1.0 0.00 1.03 0.00 71 982.4
20260503193459 79 0 0.0 0.0 0.00 1.03 0.00 71 982.4
20260503192958 79 90 0.0 1.0 0.00 1.03 0.00 72 982.4
20260503192459 79 90 0.0 1.0 0.00 1.03 0.00 71 982.2
20260503191958 79 135 0.0 1.0 0.00 1.03 0.00 71 982.1
20260503191459 80 135 0.0 1.0 0.00 1.03 0.00 71 982.4
20260503190958 80 0 0.0 0.0 0.00 1.03 0.00 71 982.4
20260503190459 80 0 0.0 0.0 0.00 1.03 0.00 71 982.2
20260503185458 80 0 0.0 0.0 0.00 1.03 0.00 72 982.3
20260503184959 79 0 0.0 0.0 0.00 1.03 0.00 72 982.4
20260503183459 80 0 0.0 0.0 0.00 1.03 0.00 71 982.2
20260503182459 80 0 0.0 0.0 0.00 1.03 0.00 71 982.6
20260503181959 80 0 0.0 0.0 0.00 1.03 0.00 71 982.5
20260503181458 80 0 0.0 0.0 0.00 1.03 0.00 71 982.4
20260503180959 80 0 0.0 0.0 0.00 1.03 0.00 71 982.3
20260503180458 80 158 0.0 1.0 0.00 1.03 0.00 71 982.3
20260503175959 80 135 0.0 1.0 0.00 1.03 0.00 71 982.1
20260503175459 80 90 0.0 1.0 0.00 1.03 0.00 71 982.1
20260503174959 80 0 0.0 0.0 0.00 1.03 0.00 71 982.2
20260503174458 80 225 0.0 3.0 0.00 1.03 0.00 71 982.4
20260503173959 80 225 0.0 3.0 0.00 1.03 0.00 71 982.5
20260503173458 80 314 0.0 1.0 0.00 1.03 0.00 71 982.3
20260503172459 80 0 0.0 0.0 0.00 1.03 0.00 71 982.3
20260503171958 80 225 0.0 1.0 0.00 1.03 0.00 71 982.5
20260503171459 80 225 0.0 1.0 0.00 1.03 0.00 71 982.3
20260503170958 80 270 0.0 1.0 0.00 1.03 0.00 71 982.4
20260503170459 80 270 0.0 1.0 0.00 1.03 0.00 72 982.4
20260503150959 81 55 0.0 1.0 0.00 1.03 0.30 73 982.6
20260503150459 81 45 0.0 1.0 0.00 1.03 0.30 73 982.7
20260503130459 82 0 0.0 0.0 0.00 1.03 0.30 71 981.8
20260503110500 84 0 0.0 0.0 0.00 1.03 0.30 66 981.4